Location: Dana
(41.8364°N, 106.7042°W)
Time: 15:08:16
(UTC+00:00)

Transit 2A - Pass Details

Date: 10 May 2026
Orbit: 595 x 948 km, 66.7° (Epoch: 8 June)

Event Time Altitude Azimuth Distance (km) Brightness Sun altitude
Rises 23:16:34 0° 194° (SSW) 3,600 9.7 31.5°
Reaches altitude 10° 23:19:12 10° 190° (S) 2,649 9.0 31.0°
Maximum altitude 23:25:13 54° 115° (ESE) 1,098 6.9 29.9°
Drops below altitude 10° 23:30:57 10° 39° (NE) 2,519 8.4 28.8°
Sets 23:33:24 0° 35° (NE) 3,411 9.0 28.4°
